Weather History for Beaumont, TX

Change the Weather History Date:

Wednesday, October 30, 2013

  Actual Average Record
Temperature  
Mean Temperature 77 °F 67 °F  
Max Temperature 81 °F 77 °F 91 °F (1915)
Min Temperature 72 °F 57 °F 34 °F (1917)
Degree Days  
Heating Degree Days 0 2  
Month to date heating degree days 9 28  
Since 1 July heating degree days 9 29  
Cooling Degree Days 12 4  
Month to date cooling degree days 216 201  
Year to date cooling degree days 2940 2787  
Growing Degree Days 26 (Base 50)    
Moisture  
Dew Point 71 °F    
Average Humidity 84    
Maximum Humidity 94    
Minimum Humidity 74    
Precipitation  
Precipitation 0.13 in 0.16 in 4.56 in (1979)
Month to date precipitation 4.52 5.42  
Year to date precipitation 47.87 50.62  
Snow  
Snow 0.00 in 0.00 in 0.00 in ()
Month to date snowfall 0.0 0.0  
Since 1 July snowfall 0.0 0.0  
Since 1 September snowfall 0.0 0.0  
Snow Depth 0.00 in    
Sea Level Pressure  
Sea Level Pressure 30.00 in    
Wind  
Wind Speed 15 mph (SE)    
Max Wind Speed 30 mph    
Max Gust Speed 39 mph    
Visibility 9 miles    
Events Rain    
T = Trace of Precipitation, MM = Missing Value Source: NWS Daily Summary

Daily Weather History Graph

Daily Weather History Graph

Search for Another Location

Airport:

Trip Planner

Search our weather history database for the weather conditions in past years. The results will help you decide how hot, cold, wet, or windy it might be!

Date:

Astronomy

Oct. 30, 2013 Rise Set
Actual Time 7:28 AM CDT 6:30 PM CDT
Civil Twilight 7:03 AM CDT 6:55 PM CDT
Nautical Twilight 6:35 AM CDT 7:23 PM CDT
Astronomical Twilight 6:07 AM CDT 7:51 PM CDT
Moon 3:35 AM CDT (10/30) 4:01 PM CDT (10/30)
Length of Visible Light 11h 51m
Length of Day
11h 01m
Waning Crescent, 17% of the Moon is Illuminated
Oct 30
Waning Crescent
Nov 3
New
Nov 9
First Quarter
Nov 17
Full
Nov 25
Last Quarter

Hourly Weather History & Observations

Time (CDT) Temp. Heat Index Dew Point Humidity Pressure Visibility Wind Dir Wind Speed Gust Speed Precip Events Conditions
12:53 AM 72.0 °F - 70.0 °F 93% 30.09 in 9.0 mi ESE 8.1 mph - N/A   Clear
1:53 AM 73.0 °F - 70.0 °F 90% 30.09 in 10.0 mi SE 8.1 mph - N/A   Clear
2:53 AM 73.9 °F - 69.1 °F 85% 30.07 in 10.0 mi SE 10.4 mph - N/A   Scattered Clouds
3:53 AM 73.9 °F - 69.1 °F 85% 30.07 in 10.0 mi SE 11.5 mph - N/A   Clear
4:53 AM 73.0 °F - 69.1 °F 87% 30.05 in 10.0 mi ESE 6.9 mph - N/A   Partly Cloudy
5:53 AM 72.0 °F - 69.1 °F 91% 30.05 in 10.0 mi ESE 6.9 mph - N/A   Partly Cloudy
6:53 AM 73.0 °F - 69.1 °F 87% 30.05 in 10.0 mi ESE 8.1 mph - N/A   Clear
7:53 AM 73.0 °F - 70.0 °F 90% 30.04 in 8.0 mi ESE 6.9 mph - N/A   Clear
8:53 AM 75.0 °F - 71.1 °F 87% 30.05 in 10.0 mi ESE 12.7 mph - N/A   Scattered Clouds
9:53 AM 75.0 °F - 71.1 °F 87% 30.07 in 10.0 mi ESE 9.2 mph - 0.01 in   Overcast
10:53 AM 77.0 °F - 71.1 °F 82% 30.07 in 10.0 mi ESE 11.5 mph - N/A   Overcast
11:34 AM 78.8 °F - 71.6 °F 78% 30.06 in 10.0 mi ESE 16.1 mph 20.7 mph N/A   Overcast
11:53 AM 79.0 °F - 72.0 °F 79% 30.05 in 10.0 mi SE 13.8 mph 24.2 mph N/A   Overcast
12:53 PM 80.1 °F 83.8 °F 72.0 °F 76% 30.02 in 10.0 mi SE 19.6 mph 29.9 mph N/A   Overcast
1:53 PM 80.1 °F 83.6 °F 71.1 °F 74% 29.98 in 10.0 mi SSE 26.5 mph 36.8 mph N/A   Overcast
2:53 PM 80.1 °F 83.6 °F 71.1 °F 74% 29.95 in 10.0 mi SSE 25.3 mph 29.9 mph N/A   Overcast
3:53 PM 79.0 °F - 71.1 °F 77% 29.93 in 10.0 mi SE 24.2 mph 33.4 mph 0.00 in   Overcast
4:53 PM 79.0 °F - 71.1 °F 77% 29.92 in 10.0 mi SE 24.2 mph 35.7 mph N/A   Overcast
5:53 PM 78.1 °F - 71.1 °F 79% 29.91 in 10.0 mi SE 20.7 mph 29.9 mph N/A   Overcast
6:53 PM 75.9 °F - 72.0 °F 87% 29.92 in 5.0 mi SE 18.4 mph 32.2 mph 0.00 in Rain Light Rain
7:53 PM 75.9 °F - 73.0 °F 91% 29.93 in 5.0 mi SSE 15.0 mph 24.2 mph 0.03 in Rain Light Rain
8:53 PM 77.0 °F - 73.0 °F 88% 29.93 in 9.0 mi SSE 18.4 mph 28.8 mph 0.05 in   Overcast
9:53 PM 77.0 °F - 73.0 °F 88% 29.93 in 10.0 mi SSE 17.3 mph 26.5 mph N/A   Overcast
10:01 PM 77.0 °F - 73.4 °F 89% 29.93 in 10.0 mi SSE 15.0 mph 25.3 mph N/A   Overcast
10:53 PM 77.0 °F - 73.0 °F 88% 29.91 in 10.0 mi SSE 17.3 mph 24.2 mph N/A   Overcast
11:53 PM 77.0 °F - 73.0 °F 88% 29.91 in 10.0 mi SSE 16.1 mph 23.0 mph N/A   Overcast